sat.trackr.live / text

‹ back to catalog

STARLINK-30330

NORAD 57636 · 2023-122E

PAYLOAD ACTIVE UNKNOWN

§ Identity

Operator
Country
US
Launch date
2023-08-17
Launch site
AFETR
Launch vehicle
Mass (kg)
RCS (m²)

Purposes: comms

External: N2YO · Heavens-Above · Gunter

§ Orbital elements

Epoch: 2026-05-25T00:00:20.627136Z

Period
94.27 min
Inclination
43.0018°
Eccentricity
0.0001517
Mean motion
15.27592972 rev/d
Perigee alt
482.0 km
Apogee alt
484.1 km
Semi-major
6,861.1 km
B*
1.0188e-4
RAAN
21.8862°
Arg perigee
272.9773°
Mean anomaly
87.0905°
Rev number
15,387

§ Raw data

STARLINK-303301 57636U 23122E   26145.00023874  .00002543  00000+0  10188-3 0  99932 57636  43.0018  21.8862 0001517 272.9773  87.0905 15.27592972153875

JSON: /api/v1/satellites/57636 · /tle

For live sub-satellite position, see the globe view (requires WebGL).

§ Visibility from observer

Set your observer location to see the next 7 days of passes ≥ 10°. The values pass through the URL so the page stays shareable.

No JS? Fill the form by hand. The geolocation button needs JavaScript.